{"data":{"norad_id":65089,"intl_designator":"2025-167M","name":"STARLINK-34665","alt_names":[],"object_type":"PAYLOAD","status":"ACTIVE","operator":null,"country":"US","launch_date":"2025-08-04","launch_site_code":"AFETR","launch_vehicle":null,"mission":null,"orbit_class":"UNKNOWN","rcs_meters":null,"size_class":null,"mass_kg":null,"dimensions":null,"purposes":["comms"],"wikipedia_slug":null,"has_3d_model":false,"image_url":null,"decayed_at":null,"tle_current":{"epoch":"2026-09-20T07:43:52.769856Z","epoch_age_seconds":136282,"freshness":"FRESH","line1":"1 65089U 25167M   26263.32213854  .00029031  00000+0  86621-3 0  9996","line2":"2 65089  53.1575 202.2791 0001091  76.4214 283.6910 15.34430017 63280","mean_motion":15.34430017,"eccentricity":0.0001091,"inclination_deg":53.1575,"raan_deg":202.2791,"arg_perigee_deg":76.4214,"mean_anomaly_deg":283.691,"bstar":0.00086621,"rev_number":6328,"period_min":93.845922202133,"perigee_km":461.86769887491,"apogee_km":463.36035074853,"semimajor_km":6840.7510248117,"source":"CELESTRAK","updated_at":"2026-09-21T09:00:35.523156Z"}}}